Regional Weather Roundup
Issued by NWS

Home | Current Version | Previous Version | Text Only | Print | Product List | Glossary On
Versions: 1 2 3 4 5 6 7 8 9 10 11 12 13 14 15 16 17 18 19 20 21 22 23 24 25 26 27 28 29 30 31 32 33 34 35 36 37 38 39 40 41 42 43 44 45 46 47 48 49 50
000
ASUS43 KDTX 211010
RWRMI
MICHIGAN HOURLY REGIONAL WEATHER ROUNDUP
NATIONAL WEATHER SERVICE DETROIT/PONTIAC MI
600 AM EDT THU AUG 21 2014

NOTE: "FAIR" INDICATES FEW OR NO CLOUDS BELOW 12,000 FEET WITH NO
SIGNIFICANT WEATHER AND/OR OBSTRUCTION TO VISIBILITY.

MIZ047>049-052>055-059>063-066>070-074>076-081>083-211100-
SOUTHEAST LOWER MICHIGAN

CITY           SKY/WX    TMP DP  RH WIND       PRES   REMARKS
ADRIAN         CLEAR     64  62  93 CALM      29.97S
ALMA           FOG       58  57  97 CALM      29.96F VSB 1/2
ANN ARBOR      FOG       61  59  93 CALM      29.96S VSB 1
BAD AXE        CLOUDY    64  64 100 CALM      29.96S FOG
DETROIT CITY   CLEAR     69  63  81 W3        29.96R
DETROIT        MOCLDY    68  63  84 CALM      29.96S
FLINT          CLEAR     64  59  83 CALM      29.97S
GROSSE ILE     PTCLDY    66  64  94 CALM      29.94F
HILLSDALE      PTCLDY    69  69 100 CALM      29.97F FOG
HOWELL         CLEAR     60  59  98 CALM      29.96S FOG

CITY           SKY/WX    TMP DP  RH WIND       PRES   REMARKS
JACKSON        CLEAR     63  61  93 CALM      29.96S
LAMBERTVILLE   CLEAR     64  63  94 CALM      29.97S FOG
LANSING        FOG       62  60  93 CALM      29.96F VSB 3/4
LAPEER         NOT AVBL
MASON          FOG       59  58  97 CALM      29.96S VSB 1/2
MONROE         FOG       64  63  94 CALM      29.95R VSB 1/4
MT. CLEMENS    CLEAR     65  63  92 W2        29.95R
PONTIAC        PTCLDY    64  61  90 NW5       29.96S
PORT HOPE        N/A     66  64  93 VRB3      29.95R
PORT HURON     CLEAR     61  61 100 CALM      29.96R FOG
TRI CITIES     CLEAR     61  59  93 CALM      29.97S
YPSILANTI      CLEAR     66  61  84 CALM      29.96F
$$
MIZ043>046-050>051-056>058-064>065-071>073-077>080-211100-
SOUTHWEST LOWER MICHIGAN

CITY           SKY/WX    TMP DP  RH WIND       PRES   REMARKS
BATTLE CREEK   CLEAR     68  64  87 SW5       29.96S
BENTON HARBOR  PTCLDY    68  67  96 SE3       29.95S
BIG RAPIDS     FOG       56  56 100 CALM      29.97S VSB 3/4
COLDWATER      CLEAR     70  69  96 SW7       29.97S FOG
HOLLAND        PTCLDY    66  63  90 SE3       29.95S
GRAND RAPIDS   PTCLDY    64  64 100 NE3       29.95F
KALAMAZOO      CLEAR     69  67  93 SW7       29.96F FOG
MARSHALL       CLEAR     65  64  96 CALM      29.96S
MUSKEGON       PTCLDY    64  60  87 NE5       29.94F
$$
MIZ016>042-211100-
NORTHERN LOWER MICHIGAN

CITY           SKY/WX    TMP DP  RH WIND       PRES   REMARKS
ALPENA         CLOUDY    63  62  97 W5        29.96S
BEAVER ISLAND  CLOUDY    63  62  96 CALM      29.98S FOG
BELLAIRE       CLOUDY    63  61  95 CALM      29.97S
CADILLAC       FOG       53  53 100 CALM      29.98R VSB 1/4
CHARLEVOIX     CLOUDY    64  64 100 W6        30.00S
FRANKFORT      CLOUDY    58  55  91 CALM      29.96S
GAYLORD        CLOUDY    60  60 100 W6        29.98S FOG
GRAYLING       CLOUDY    62  61  97 CALM      29.99S
HARBOR SPRINGS CLOUDY    63  62  95 CALM      29.97S FOG
HOUGHTON LAKE  CLOUDY    61  59  93 NW5       29.98F
MANISTEE       CLOUDY    55  52  88 E5        29.97S VSB 1/4
OSCODA         CLEAR     61  60  99 NW5       29.95S
PELLSTON       CLOUDY    62  61  96 W3        29.97S
TRAVERSE CITY  CLOUDY    63  59  87 CALM      29.96F
$$
MIZ007>008-015-211100-
EASTERN UPPER MICHIGAN

CITY           SKY/WX    TMP DP  RH WIND       PRES   REMARKS
KINROSS        CLOUDY    59  57  94 W5        29.97S
MACKINAC ISLAN CLOUDY    60  60 100 NW5       29.97S
NEWBERRY       FOG       57  57 100 CALM      29.97F VSB 1/4
S. S. MARIE    CLOUDY    60  58  92 W3        29.96R
$$
MIZ004>006-011>014-085-211100-
CENTRAL UPPER MICHIGAN

CITY           SKY/WX    TMP DP  RH WIND       PRES   REMARKS
MANISTIQUE     CLOUDY    60  60 100 CALM      29.97S FOG
ESCANABA       CLOUDY    63  59  88 NE5       29.96S
MENOMINEE      MOCLDY    63  61  94 CALM      29.94S VSB 1/4
SAWYER-GWINN   CLOUDY    59  58  97 CALM      29.97F FOG
$$
MIZ001>003-009>011-084-211100-
WESTERN UPPER MICHIGAN

CITY           SKY/WX    TMP DP  RH WIND       PRES   REMARKS
IRON MOUNTAIN  CLOUDY    63  60  90 CALM      29.95F
HOUGHTON       FOG       60  58  92 E5        29.96S VSB 1/4
COPPER HARBOR    N/A     54  53  97 CALM      29.96S
IRONWOOD       CLEAR     54  54 100 E5        29.91F
$$

ABBREVIATIONS USED IN REMARKS
   TC - TEMPERATURE IN CELSIUS
  WCI - WIND CHILL INDEX
   HX - HEAT INDEX
  VSB - VISIBILITY




USA.gov is the U.S. government's official web portal to all federal, state and local government web resources and services.